Regional Weather Roundup
Issued by NWS

Home | Current Version | Previous Version | Text Only | Print | Product List | Glossary On
Versions: 1 2 3 4 5 6 7 8 9 10 11 12 13 14 15 16 17 18 19 20 21 22 23 24 25 26 27 28 29 30 31 32 33 34 35 36 37 38 39 40 41 42 43 44 45 46 47 48 49 50
000
ASUS43 KDMX 241007
RWRIA

WEATHER ROUNDUP FOR IOWA
NATIONAL WEATHER SERVICE DES MOINES IA
500 AM CDT SUN MAY 24 2015

NOTE: "FAIR" INDICATES FEW OR NO CLOUDS BELOW 12,000 FEET WITH NO
SIGNIFICANT WEATHER AND/OR OBSTRUCTIONS TO VISIBILITY.

* - THESE STATIONS ARE NOT NWS STATIONS...THUS NOT UNDER NWS
QUALITY CONTROL.  THEY ALSO DO NOT REPORT WEATHER SUCH
AS PRECIPITATION OR FOG.

IAZ001>003-012>014-020>022-031>034-043>046-241100-
   NORTHWEST IOWA

CITY           SKY/WX    TMP DP  RH WIND       PRES   REMARKS
CARROLL *      CLOUDY    59  59 100 E8        29.98F FOG
CHEROKEE *     RAIN      59  59 100 E8        29.98F
DENISON *      CLOUDY    59  59 100 E8        29.94F FOG
LE MARS *      CLOUDY    61  59  94 E9        29.97F
ORANGE CITY *  CLOUDY    57  57 100 E7        29.98F
SHELDON *      CLOUDY    59 N/A N/A E9        29.98F
SIOUX CITY     CLOUDY    61  58  90 E7        29.94F
SPENCER        CLOUDY    59  57  93 E9        30.00F
STORM LAKE *   CLOUDY    59  57  94 E10       30.00F FOG
$$

IAZ055>058-069>071-079>083-090>094-241100-
   SOUTHWEST IOWA

CITY           SKY/WX    TMP DP  RH WIND       PRES   REMARKS
ATLANTIC *     CLOUDY    59  59 100 E9        29.94F
AUDUBON *      CLOUDY    59  55  88 E7        29.97F
CLARINDA *     CLOUDY    61  61 100 SE5       29.92F FOG
COUNCIL BLFS * CLOUDY    59  59 100 E13       29.91F
CRESTON *      RAIN      59  59 100 E17G24    29.93F
HARLAN  *      CLOUDY    59  59 100 NE8       29.97F
LAMONI         LGT RAIN  61  59  93 E10       29.95F
RED OAK *      CLOUDY    61  61 100 E12       29.91F
SHENANDOAH *   LGT RAIN  61  61 100 E7        29.91S
$$

IAZ047>049-059>061-072>074-084-241100-
   CENTRAL IOWA

CITY           SKY/WX    TMP DP  RH WIND       PRES   REMARKS
AMES           LGT RAIN  59  56  89 E6        30.00F
ANKENY *       LGT RAIN  59  59 100 E6        30.00F
CHARITON *     LGT RAIN  59  59 100 SE12G18   29.99F
DES MOINES     LGT RAIN  61  57  87 SE10      29.99F
GRINNELL*      LGT RAIN  59  57  94 E7        30.05F
KNOXVILLE *    CLOUDY    59  57  94 SE9G16    29.99F FOG
MARSHALLTOWN   CLOUDY    59  56  89 E10       30.03F
PELLA *        RAIN      59  59 100 SE9       30.03F
PERRY *        LGT RAIN  59  57  94 E6        29.99F
$$

IAZ004>006-015-016-023>025-035-036-241100-
   NORTH CENTRAL IOWA

CITY           SKY/WX    TMP DP  RH WIND       PRES   REMARKS
ALGONA *       CLOUDY    59  59 100 E8        30.04F
CLARION *      CLOUDY    61  59  94 SE12      30.05S
ESTHERVILLE    LGT RAIN  57  56  96 SE10      30.03F
FORT DODGE *   CLOUDY    61  54  77 CALM      30.02F
MASON CITY     LGT RAIN  60  55  83 SE10      30.09F
FOREST CITY *  RAIN      55  55 100 SE6       30.07S
IOWA FALLS *   DRIZZLE   61  55  82 SE10      30.05F
$$

IAZ007>011-017>019-026>030-037>042-050>054-066-241100-
   NORTHEAST IOWA

CITY           SKY/WX    TMP DP  RH WIND       PRES   REMARKS
CEDAR RAPIDS   LGT RAIN  59  56  89 SE8       30.09F
CHARLES CITY * CLOUDY    63  54  72 E10       30.09F
CLINTON *      CLOUDY    61  54  77 SE6       30.17F
DECORAH *      CLOUDY    63  48  59 S8        30.10F
DUBUQUE        CLOUDY    63  50  62 S12       30.14F
MONTICELLO *   CLOUDY    61  57  88 S10G16    30.12F
OELWEIN *      CLOUDY    61  55  82 E3        30.09F
WATERLOO       CLOUDY    59  56  89 E6        30.06F
$$

IAZ064-065-067-068-078-241100-
   EAST CENTRAL IOWA

CITY           SKY/WX    TMP DP  RH WIND       PRES   REMARKS
DAVENPORT      LGT RAIN  61  53  75 SE7       30.14F
IOWA CITY      LGT RAIN  60  56  86 E6        30.10F
MT. PLEASANT * DRIZZLE   59  59 100 E5        30.08F
MUSCATINE *    CLOUDY    61  57  88 E6        30.10F
QUAD CITIES    LGT RAIN  61  54  77 E8        30.12F
$$

IAZ062-063-075>077-085>089-095>099-241100-
   SOUTHEAST IOWA

CITY           SKY/WX    TMP DP  RH WIND       PRES   REMARKS
BURLINGTON     LGT RAIN  60  58  92 S7        30.10F
FAIRFIELD *    MOCLDY    59  57  94 SE9       30.05F
FORT MADISON * LGT RAIN  59  57  94 SE8       30.09F
KEOKUK *       CLOUDY    59  59 100 E8        30.07F
OSKALOOSA *    LGT RAIN  59  57  94 SE12      30.05S
CENTERVILLE *  LGT RAIN  59  59 100 E13       30.02F
OTTUMWA        LGT RAIN  59  58  96 SE8       30.04F
WASHINGTON *   LGT RAIN  61  57  88 SE6       30.08F
$$

ABBREVIATIONS USED IN REMARKS
   TC - TEMPERATURES IN CELSIUS
  WCI - WIND CHILL INDEX
   HX - HEAT INDEX
  VSB - VISIBILITY
$$




USA.gov is the U.S. government's official web portal to all federal, state and local government web resources and services.